This is the latest recevied weather packets stored in our database for station/object LU3HGB-WX. If no packets are shown the sender has not sent any weather packets the latest 10 day(s).
| Time | Temp. | Humidity | Pressure | Rain* | Wind** | Luminosity | Snow |
|---|---|---|---|---|---|---|---|
| 1788095861 | 14.44° C | 38% | 1015 hPa | 0 mm | - | 500 W/m² | - |
| 1788095559 | 13.89° C | 40% | 1015 hPa | 0 mm | - | 484 W/m² | - |
| 1788095259 | 12.78° C | 46% | 1015 hPa | 0 mm | - | 463 W/m² | - |
| 1788094959 | 12.22° C | 48% | 1015 hPa | 0 mm | - | 444 W/m² | - |
| 1788094672 | 11.67° C | 49% | 1015 hPa | 0 mm | - | 425 W/m² | - |
| 1788094362 | 11.67° C | 49% | 1015 hPa | 0 mm | - | 405 W/m² | - |
| 1788094059 | 11.67° C | 51% | 1015 hPa | 0 mm | - | 379 W/m² | - |
| 1788093759 | 11.67° C | 50% | 1015 hPa | 0 mm | - | 362 W/m² | - |
| 1788093459 | 11.11° C | 50% | 1015 hPa | 0 mm | - | 342 W/m² | - |
| 1788093160 | 11.11° C | 52% | 1015 hPa | 0 mm | - | 322 W/m² | - |
| 1788092859 | 10.56° C | 49% | 1015 hPa | 0 mm | - | 301 W/m² | - |
| 1788092560 | 10° C | 54% | 1015 hPa | 0 mm | - | 281 W/m² | - |
| 1788092261 | 8.89° C | 53% | 1015 hPa | 0 mm | - | 257 W/m² | - |
| 1788091970 | 8.33° C | 57% | 1015 hPa | 0 mm | - | 241 W/m² | - |
| 1788091660 | 7.78° C | 61% | 1015 hPa | 0 mm | - | 218 W/m² | - |
| 1788091360 | 6.67° C | 62% | 1015 hPa | 0 mm | - | 197 W/m² | - |
| 1788091059 | 5.56° C | 67% | 1015 hPa | 0 mm | - | 170 W/m² | - |
| 1788090759 | 4.44° C | 69% | 1015 hPa | 0 mm | - | 159 W/m² | - |
| 1788090459 | 3.33° C | 75% | 1015 hPa | 0 mm | - | 135 W/m² | - |
| 1788090159 | 2.22° C | 80% | 1015 hPa | 0 mm | - | 121 W/m² | - |
| 1788089860 | 1.67° C | 83% | 1015 hPa | 0 mm | - | 116 W/m² | - |
| 1788089559 | 0.56° C | 85% | 1016 hPa | 0 mm | - | 65 W/m² | - |
| 1788089260 | 0.56° C | 84% | 1015 hPa | 0 mm | - | 44 W/m² | - |
| 1788088960 | 0.56° C | 84% | 1016 hPa | 0 mm | - | 41 W/m² | - |
| 1788088659 | 0.56° C | 84% | 1016 hPa | 0 mm | - | 35 W/m² | - |
* Rain latest hour (hover to see other rain measurements)
** Current wind speed in m/s (hover to see current wind gust speed)